Location: Brienzwiler
(46.7508°N, 8.1014°E)
Time: 17:14:14
(UTC+00:00)

ALOS 2 - Pass Details

Date: 05 July 2020
Orbit: 630 x 632 km, 97.9° (Epoch: 10 August)

Event Time Altitude Azimuth Distance (km) Brightness Sun altitude
Exits shadow 21:57:59 20° 106° (ESE) 1,479 4.1 -17.4°
Maximum altitude 21:59:56 28° 66° (ENE) 1,208 4.0 -17.5°
Drops below altitude 10° 22:03:40 10° 8° (N) 2,025 6.1 -17.7°
Sets 22:06:07 0° 357° (N) 2,938 7.4 -17.9°
